Welcome to the New NWS' Forecast!
Most changes are behind the scenes, but click here for differences you might notice.

Regional Weather Roundup (RWR)

Issued by Gray - Portland, ME (GYX)

                            
000
ASUS41 KGYX 092005
RWRGYX
WEATHER ROUNDUP FOR MAINE AND NEW HAMPSHIRE
NATIONAL WEATHER SERVICE GRAY ME
300 PM EST SUN DEC 09 2018

MEZ002-005-006-010-012-015-018-020-021-024-026-027-029-092100-
MAINE
  
CITY           SKY/WX    TMP DP  RH WIND       PRES   REMARKS
PORTLAND       FAIR      33  14  45 S9        30.21F                  
SANFORD        FAIR      32  17  54 SW12      30.20F                  
BAR HARBOR     FAIR      29  15  56 SW13      30.19F WCI  19          
WISCASSET      FAIR      30  13  49 SW6       30.22F                  
ROCKLAND       FAIR      30  17  58 SW9       30.21F                  
FRYEBURG       FAIR      29  15  56 VRB6      30.16F                  
LEWISTONAUBURN FAIR      31  17  56 SW10      30.17F                  
AUGUSTA        FAIR      28  11  48 S7        30.18F                  
WATERVILLE     FAIR      29  13  51 MISG      30.14F                  
BANGOR         MOCLDY    27  11  51 S6        30.17F                  
GREENVILLE       N/A     19  10  68 S9        30.02F                  
MILLINOCKET    CLOUDY    22   8  55 VRB3      30.13F                  
HOULTON        CLOUDY    15   5  64 SW5       30.10F                  
PRESQUE ISLE   LGT SNOW  14   8  77 S7        30.09F                  
FRENCHVILLE    LGT SNOW  11   4  73 S7        30.01F VSB 1            
CARIBOU        LGT SNOW  11   5  77 S6        30.07F VSB 1            
$$

NHZ002-005-008-009-011-012-014-092100-
NEW HAMPSHIRE
  
CITY           SKY/WX    TMP DP  RH WIND       PRES   REMARKS
PORTSMOUTH     MOCLDY    34  15  47 SW12G20   30.20F                  
ROCHESTER      FAIR      32  17  54 CALM      30.19F                  
NASHUA         FAIR      33  18  53 VRB6      30.23F                  
MANCHESTER     MOCLDY    33  17  51 SW9       30.21F                  
CONCORD        FAIR      32  19  58 S8        30.20F                  
LACONIA        FAIR      32  19  58 SW8       30.17F                  
PLYMOUTH       CLOUDY    29  17  61 CALM      30.17F                  
BERLIN         CLOUDY    27  15  61 S6        30.08F                  
WHITEFIELD     CLOUDY    28  17  63 SW8       30.10F                  
JAFFREY        FAIR      29  19  66 SW7G16    30.18F                  
KEENE          FAIR      34  18  52 S8        30.21F                  
LEBANON        FAIR      32  17  54 S13       30.15F                  
MT WASHINGTON  MOCLDY     7   1  78 W53G72      N/A  WCI -22          
$$

VTZ005-007-008-092100-
VERMONT
  
CITY           SKY/WX    TMP DP  RH WIND       PRES   REMARKS
ST JOHNSBURY     N/A     27  17  66 MISG      30.11F                  
MONTPELIER     FAIR      30  17  58 SW9       30.12F                  
BURLINGTON     FAIR      33  19  56 S15       30.13S                  
$$

MAZ007-012-024-CTZ003-RIZ002-NYZ038-NYZ072-092100-
SOUTHERN NEW ENGLAND AND NY
  
CITY           SKY/WX    TMP DP  RH WIND       PRES   REMARKS
BOSTON         CLOUDY    36  17  46 SW10      30.26F                  
WORCESTER      FAIR      29  17  61 SW14      30.21F WCI  18          
NANTUCKET      FAIR      33  18  53 W10       30.31F                  
PROVIDENCE     PTSUNNY   33  16  49 SW10      30.29F                  
HARTFORD       PTSUNNY   33  16  49 SW13      30.27F                  
ALBANY         FAIR      36  17  46 S12       30.23F                  
NEW YORK CITY  CLOUDY    36  19  50 SW8       30.32F                  
$$

ANZ081-ANZ082-ANZ150-NHZ014-MEZ023>029-092100-
COASTAL MARINE OBSERVATIONS
  
STATION/POSITION TIME  TEMP    WIND        PRES    WAVE
                       AIR SEA DIR/SP/G            HT/PER
                 (UTC) (F)     (DEG/KT/KT) (MB)    (FT/S)
MOUNT DESERT ROC 2000   31     240/ 12/ 14 1023.3F
MATINICUS ROCK   1900   30     220/ 10/ 16 1023.5F
ISLE OF SHOALS   1900   33     240/ 13/ 15 1023.9F
JEFFREYS LEDGE   1908      47                N/A     2/ 4
CASHES LEDGE BUO 1950   34 46              1023.4F   3/ 5
$$

.............KEY..............
   WCI - WIND CHILL
   TC  - TEMPERATURE IN CELSIUS
   VSB - VISIBILITY IN MILES
   HX  - HEAT INDEX
   FAIR- INDICATES FEW OR NO CLOUDS BELOW 12,000 FT, WITH NO 
         SIGNIFICANT WEATHER AND/OR OBSTRUCTIONS TO VISIBILITY.